Location: Atherton
(17.2661°S, 145.4859°E)
Time: 02:30:26
(UTC+10:00)

Vanguard 2 - All Passes

Search period start: 24 June 2025 00:00
Search period end: 04 July 2025 00:00
Orbit: 552 x 2900 km, 32.9° (Epoch: 22 June)

Date Brightness Start Highest point End Pass type
(mag) Time Alt. Az. Time Alt. Az. Time Alt. Az.
24 Jun - 01:32:39 10° SW 01:42:15 43° SSE 01:56:43 10° E visible
24 Jun - 03:41:13 10° WSW 03:54:30 81° SSE 04:12:24 10° ENE visible
24 Jun - 05:51:48 10° WSW 06:06:54 50° NW 06:23:17 10° NNE visible
24 Jun - 08:09:42 10° WNW 08:19:06 17° NW 08:28:01 10° N daylight
24 Jun - 19:20:10 10° NW 19:24:06 53° NE 19:29:15 10° ESE visible
24 Jun - 21:27:56 10° W 21:32:35 34° SSW 21:39:32 10° SE visible
24 Jun - 23:36:55 10° SW 23:43:21 29° S 23:53:00 10° ESE night (unlit)
25 Jun - 01:45:10 10° SW 01:55:03 48° SSE 02:10:09 10° E visible
25 Jun - 03:53:42 10° WSW 04:07:03 87° NNW 04:24:59 10° NE visible
25 Jun - 06:04:58 10° W 06:19:23 40° NW 06:34:55 10° NNE visible
25 Jun - 08:27:27 10° NW 08:31:55 11° NW 08:36:15 10° NNW daylight
25 Jun - 19:32:26 10° WNW 19:36:29 90° NNE 19:41:52 10° ESE visible
25 Jun - 21:40:55 10° WSW 21:45:28 28° S 21:52:01 10° SE night (unlit)
25 Jun - 23:49:41 10° SW 23:56:19 30° SSE 00:06:20 10° ESE night (unlit)
26 Jun - 01:57:35 10° SW 02:07:46 56° SSE 02:23:25 10° E visible
26 Jun - 04:06:15 10° WSW 04:19:35 75° NNW 04:37:21 10° NE visible
26 Jun - 06:18:29 10° W 06:31:55 32° NW 06:46:17 10° NNE visible
26 Jun - 17:39:05 10° N 17:41:30 15° NE 17:43:55 10° ENE daylight
26 Jun - 19:44:58 10° WNW 19:48:58 56° SSW 19:54:18 10° SE visible
26 Jun - 21:53:56 10° WSW 21:58:23 24° S 22:04:37 10° SE night (unlit)
27 Jun - 00:02:19 10° SW 00:09:14 32° SSE 00:19:47 10° ESE night (unlit)
27 Jun - 02:09:59 10° SW 02:20:23 65° SSE 02:36:31 10° ENE visible
27 Jun - 04:18:55 10° WSW 04:32:07 62° NW 04:49:29 10° NE visible
27 Jun - 06:32:31 10° W 06:44:34 25° NW 06:57:16 10° N daylight
27 Jun - 17:50:24 10° NNW 17:53:51 27° NE 17:57:21 10° E daylight
27 Jun - 19:57:43 10° W 20:01:34 37° SSW 20:06:38 10° SE visible
27 Jun - 22:06:55 10° SW 22:11:19 22° S 22:17:24 10° SE night (unlit)
28 Jun - 00:14:49 10° SW 00:22:02 36° SSE 00:33:16 10° E visible
28 Jun - 02:22:23 10° WSW 02:32:56 77° SSE 02:49:24 10° ENE visible
28 Jun - 04:31:44 10° WSW 04:44:40 51° NW 05:01:23 10° NE visible
28 Jun - 06:47:22 10° WNW 06:57:20 18° NW 07:07:43 10° N daylight
28 Jun - 18:02:18 10° NW 18:06:13 47° NNE 18:10:13 10° ESE daylight
28 Jun - 20:10:39 10° WSW 20:14:16 27° SSW 20:18:55 10° SE visible
28 Jun - 22:19:47 10° SW 22:24:15 21° S 22:30:23 10° SE night (unlit)
29 Jun - 00:27:15 10° SW 00:34:46 41° SSE 00:46:43 10° E visible
29 Jun - 02:34:48 10° WSW 02:45:27 90° NNW 03:02:03 10° ENE visible
29 Jun - 04:44:47 10° W 04:57:16 41° NW 05:13:02 10° NNE visible
29 Jun - 07:03:48 10° WNW 07:10:19 13° NW 07:16:57 10° NNW daylight
29 Jun - 18:14:33 10° WNW 18:18:36 86° NNE 18:22:48 10° ESE visible
29 Jun - 20:23:44 10° WSW 20:27:03 21° S 20:31:11 10° SE visible
29 Jun - 22:32:31 10° SW 22:37:09 22° SSE 22:43:35 10° ESE night (unlit)
30 Jun - 00:39:35 10° SW 00:47:22 48° SSE 01:00:02 10° E visible
30 Jun - 02:47:18 10° WSW 02:57:58 75° NNW 03:14:28 10° NE visible
30 Jun - 04:58:11 10° W 05:09:56 32° NW 05:24:24 10° NNE visible
30 Jun - 16:20:11 10° N 16:23:18 17° NNE 16:26:00 10° ENE daylight
30 Jun - 18:27:05 10° WNW 18:31:03 55° SSW 18:35:11 10° SE visible
30 Jun - 20:36:53 10° SW 20:39:53 17° S 20:43:31 10° SE visible
30 Jun - 22:45:04 10° SW 22:49:58 24° SSE 22:56:57 10° ESE night (unlit)
01 Jul - 00:51:55 10° SW 00:59:54 58° SSE 01:13:11 10° ENE visible
01 Jul - 02:59:54 10° WSW 03:10:30 62° NNW 03:26:38 10° NE visible
01 Jul - 05:12:02 10° W 05:22:43 25° NNW 05:35:24 10° NNE visible
01 Jul - 16:31:34 10° NNW 16:35:49 28° NNE 16:39:19 10° E daylight
01 Jul - 18:39:52 10° W 18:43:33 34° SSW 18:47:26 10° SE visible
01 Jul - 20:50:01 10° SW 20:52:45 15° S 20:56:00 10° SE visible
01 Jul - 22:57:29 10° SW 23:02:43 27° SSE 23:10:24 10° ESE night (unlit)
02 Jul - 01:04:15 10° SW 01:12:23 71° SSE 01:26:07 10° ENE visible
02 Jul - 03:12:41 10° WSW 03:23:07 49° NNW 03:38:33 10° NE visible
02 Jul - 05:26:39 10° WNW 05:35:38 18° NNW 05:45:53 10° N visible
02 Jul - 16:43:27 10° NW 16:48:16 48° NNE 16:52:09 10° ESE daylight
02 Jul - 18:52:52 10° WSW 18:56:08 23° SSW 18:59:35 10° SE visible
02 Jul - 21:02:59 10° SSW 21:05:37 14° S 21:08:44 10° SE night (unlit)
02 Jul - 23:09:48 10° SW 23:15:22 32° SSE 23:23:49 10° E night (unlit)
03 Jul - 01:16:37 10° WSW 01:24:51 87° SSE 01:38:48 10° ENE visible
03 Jul - 03:25:40 10° W 03:35:46 39° NNW 03:50:12 10° NNE visible
03 Jul - 05:42:46 10° NW 05:48:43 13° NNW 05:55:11 10° N visible
03 Jul - 14:49:03 10° N 14:52:14 14° NNE 14:54:55 10° ENE daylight
03 Jul - 16:55:42 10° WNW 17:00:42 83° NNE 17:04:41 10° ESE daylight
03 Jul - 19:06:05 10° WSW 19:08:48 17° SSW 19:11:39 10° SSE visible
03 Jul - 21:15:42 10° SSW 21:18:28 15° S 21:21:47 10° SE night (unlit)
03 Jul - 23:22:04 10° SW 23:27:54 39° SSE 23:37:08 10° E night (unlit)
